Submittal Forms
Current Contests
Recent Contests

Club Activity Tracker - Araucaria DX Group (from club selection on form)

Recent postings for the selected club or group are listed below. Other than the call used, all calls listed are only those associated with the club or group. Click on a call to see the details of the posting.
Status Key: new=new posting, update=update prior posting, move=change club/group, delete=delete prior posting.

Sort by   for past

TimestampCallContestClassPowerScoreStatus
2021-05-09 12:14:21PY2KNKVolta RTTYSOABHP719,990,235new6411
2021-05-06 04:02:25PY4XXCWopsTSingle OpLP324new6404
2021-05-05 14:04:45PY4XXCWopsTSingle OpLP100new6402
2021-05-02 14:06:39PY2KCARISO CWLP87,255new6393
2021-04-29 04:02:59PY4XXCWopsTSingle OpLP1,600new6386
2021-04-28 20:10:36PY4XXCWopsTSingle OpLP625new6385
2021-04-28 14:03:41PY4XXCWopsTSingle OpLP25new6384
2021-04-25 05:22:56PX2V(@PY2KJ)SPDX RTTYSOABHP100,620new6372
2021-04-23 10:21:08PS2T(PY2ZEA)CQMM DXSOABHP737,394new6356
2021-04-22 04:02:41PY4XXCWopsTSingle OpLP576new6366
 
2021-04-21 20:03:12PY4XXCWopsTSingle OpLP225new6365
2021-04-19 21:40:04PY2NACQMM DXSOSB/40HP80,712new6356
2021-04-19 19:08:40CX2AQCQMM DXSOABLP418,548new6356
2021-04-19 15:21:51PY2EYECQMM DXSOABQRP4,368new6356
2021-04-19 15:04:36PY2YU(@PY2EYE)CQMM DXSOSB/15QRP6,831new6356
2021-04-19 14:32:18PY2NDX(@PY2EYE)CQMM DXSOSB/10QRP8,695new6356
2021-04-19 14:23:35PY4ZOCQMM DXSOABLP22,538new6356
2021-04-19 12:50:52PQ5B(@PP5BZ)CQMM DXSOABLP365,952new6356
2021-04-19 12:24:15PY2KCCQMM DXSOABLP850,170new6356
2021-04-19 02:29:59PY3KNCQMM DXSOSB/10LP76,647update6356
 
2021-04-19 01:49:17ZV2F(PY2SFA)CQMM DXSOABLP20,570new6356
2021-04-18 22:34:33ZX2V(@PY2XV)CQMM DXSOABLP37,146new6356
2021-04-15 04:03:25PY4XXCWopsTSingle OpLP1,089new6347
2021-04-14 20:02:23PY4XXCWopsTSingle OpLP676new6346
2021-04-14 14:06:19PY4XXCWopsTSingle OpLP121new